Location: Shenandoah County Park
(38.9356°N, 78.4524°W)
Time: 09:13:35
(UTC-05:00)

Envisat - Visible Passes

Search period start: 28 November 2021 00:00
Search period end: 08 December 2021 00:00
Orbit: 764 x 766 km, 98.2° (Epoch: 28 November)

Date Brightness Start Highest point End Pass type
(mag) Time Alt. Az. Time Alt. Az. Time Alt. Az.
28 Nov 5.1 04:20:49 10° NE 04:24:56 24° E 04:29:02 10° SSE visible
28 Nov 3.5 05:59:22 10° N 06:03:59 36° WNW 06:08:36 10° SW visible
29 Nov 6.2 03:47:25 10° E 03:47:42 10° E 03:47:58 10° E visible
29 Nov 2.9 05:22:11 10° N 05:27:17 82° WNW 05:32:21 10° SSW visible
30 Nov 4.1 04:45:33 10° NNE 04:50:23 43° E 04:55:12 10° S visible
30 Nov 4.1 06:25:18 10° NNW 06:29:05 21° WNW 06:32:51 10° WSW visible
30 Nov 5.9 17:39:32 10° SW 17:42:52 17° W 17:46:12 10° NW visible
01 Dec 5.5 04:09:43 10° NE 04:13:17 19° E 04:16:51 10° SE visible
01 Dec 3.2 05:47:40 10° N 05:52:30 46° WNW 05:57:19 10° SW visible
02 Dec 3.1 05:10:38 10° NNE 05:15:44 78° ESE 05:20:49 10° S visible
03 Dec 4.6 04:34:11 10° NNE 04:38:47 33° E 04:43:20 10° SSE visible
03 Dec 3.9 06:13:26 10° NNW 06:17:38 27° WNW 06:21:50 10° WSW visible
03 Dec 5.7 17:27:17 10° SW 17:31:12 22° W 17:35:09 10° NW visible
04 Dec 5.8 03:58:50 10° ENE 04:01:37 15° E 04:04:24 10° SE visible
04 Dec 2.9 05:36:00 10° N 05:41:00 59° WNW 05:45:59 10° SSW visible
05 Dec 3.4 04:59:08 10° NNE 05:04:11 60° E 05:09:11 10° S visible
05 Dec 4.4 06:39:39 10° NNW 06:42:39 16° WNW 06:45:38 10° W visible
05 Dec 6.2 17:54:44 10° WSW 17:56:46 12° W 17:58:49 10° WNW visible
06 Dec 5.0 04:22:55 10° NE 04:27:09 26° E 04:31:22 10° SSE visible
06 Dec 3.6 06:01:37 10° N 06:06:10 34° WNW 06:10:41 10° SW visible
06 Dec 5.3 17:15:13 10° SSW 17:19:34 29° W 17:23:57 10° NW visible
07 Dec 6.1 03:48:31 10° ENE 03:49:56 11° E 03:51:20 10° ESE visible
07 Dec 2.8 05:24:24 10° N 05:29:28 76° WNW 05:34:32 10° SSW visible
